When you browse on this site, cookies collect data to enhance your experience and personalize the content and advertising you see.
Visit our Privacy Policy to learn more. By continuing to use the site, you agree to this use of cookies and data.
  • în România
  • Lista ţărilor
  • Pe 7 zile
  • Temperatura apei
  • Hartă satelitară
  • Meteo pe hartă
  • Widget-uri
  • user-avatar
    Intrare

    Meteo pe oră la Nashville

    Astăzi, 16 Februarie, Sâmbătă

    Timp Temperatura Precipitaţii Vânt Presiune Umiditate
    00:00 0°C° 0 mm 4 m/s 747 mmHg 88%
    01:00 0°C° 0.7 mm 4 m/s 747 mmHg 88%
    02:00 0°C° 0.7 mm 4 m/s 747 mmHg 88%
    03:00 -1°C° 0.7 mm 4 m/s 747 mmHg 87%
    04:00 -1°C° 0 mm 4 m/s 747 mmHg 87%
    05:00 -1°C° 0 mm 4 m/s 748 mmHg 86%
    06:00 -1°C° 0 mm 4 m/s 748 mmHg 86%
    07:00 -1°C° 0 mm 4 m/s 748 mmHg 84%
    08:00 -1°C° 0 mm 4 m/s 749 mmHg 83%
    09:00 0°C° 0 mm 3 m/s 749 mmHg 81%
    10:00 +2°C° 0 mm 3 m/s 749 mmHg 77%
    11:00 +3°C° 0 mm 3 m/s 749 mmHg 73%
    12:00 +6°C° 0 mm 2 m/s 749 mmHg 68%
    13:00 +5°C° 0 mm 3 m/s 748 mmHg 69%
    14:00 +7°C° 0 mm 3 m/s 748 mmHg 69%
    15:00 +7°C° 0 mm 3 m/s 747 mmHg 69%
    16:00 +5°C° 0 mm 3 m/s 747 mmHg 72%
    17:00 +6°C° 0 mm 2 m/s 747 mmHg 76%
    18:00 +5°C° 0 mm 2 m/s 747 mmHg 79%
    19:00 +5°C° 0 mm 2 m/s 747 mmHg 81%
    20:00 +4°C° 0 mm 2 m/s 747 mmHg 84%
    21:00 +4°C° 0 mm 2 m/s 747 mmHg 86%
    22:00 +4°C° 0 mm 2 m/s 746 mmHg 85%
    23:00 +5°C° 0 mm 2 m/s 746 mmHg 85%

    Mâine, 17 Februarie, Duminică

    Timp Temperatura Precipitaţii Vânt Presiune Umiditate
    00:00 +6°C° 0 mm 1 m/s 746 mmHg 85%
    01:00 +6°C° 0.2 mm 1 m/s 745 mmHg 86%
    02:00 +6°C° 0.2 mm 1 m/s 745 mmHg 88%
    03:00 +6°C° 0.2 mm 0 m/s 745 mmHg 89%
    04:00 +7°C° 0.7 mm 1 m/s 744 mmHg 92%
    05:00 +8°C° 0.7 mm 1 m/s 744 mmHg 94%
    06:00 +8°C° 0.7 mm 1 m/s 744 mmHg 96%
    07:00 +8°C° 1 mm 1 m/s 744 mmHg 96%
    08:00 +9°C° 1 mm 1 m/s 744 mmHg 97%
    09:00 +9°C° 1 mm 1 m/s 744 mmHg 97%
    10:00 +10°C° 0.2 mm 1 m/s 744 mmHg 96%
    11:00 +10°C° 0.2 mm 2 m/s 744 mmHg 94%
    12:00 +13°C° 0.2 mm 2 m/s 744 mmHg 93%
    13:00 +12°C° 0.1 mm 3 m/s 743 mmHg 93%
    14:00 +13°C° 0.1 mm 3 m/s 743 mmHg 93%
    15:00 +14°C° 0.1 mm 3 m/s 743 mmHg 93%
    16:00 +13°C° 0.1 mm 3 m/s 744 mmHg 91%
    17:00 +12°C° 0.1 mm 4 m/s 744 mmHg 90%
    18:00 +11°C° 0.1 mm 4 m/s 745 mmHg 88%
    19:00 +10°C° 0 mm 4 m/s 746 mmHg 87%
    20:00 +8°C° 0 mm 4 m/s 747 mmHg 86%
    21:00 +7°C° 0 mm 5 m/s 748 mmHg 84%
    22:00 +6°C° 0 mm 4 m/s 749 mmHg 84%
    23:00 +5°C° 0 mm 4 m/s 750 mmHg 83%

    Poimâine, 18 Februarie, Luni

    Timp Temperatura Precipitaţii Vânt Presiune Umiditate
    00:00 +5°C° 0 mm 4 m/s 751 mmHg 82%
    01:00 +4°C° 0 mm 4 m/s 751 mmHg 81%
    02:00 +3°C° 0 mm 3 m/s 752 mmHg 80%
    03:00 +2°C° 0 mm 3 m/s 753 mmHg 79%
    04:00 +1°C° 0 mm 3 m/s 754 mmHg 80%
    05:00 +1°C° 0 mm 3 m/s 754 mmHg 81%
    06:00 0°C° 0 mm 3 m/s 755 mmHg 82%
    07:00 +1°C° 0 mm 3 m/s 756 mmHg 80%
    08:00 +2°C° 0 mm 2 m/s 757 mmHg 77%
    09:00 +2°C° 0 mm 2 m/s 757 mmHg 75%
    10:00 +4°C° 0 mm 2 m/s 758 mmHg 68%
    11:00 +5°C° 0 mm 2 m/s 758 mmHg 62%
    12:00 +8°C° 0 mm 1 m/s 758 mmHg 55%
    13:00 +7°C° 0 mm 2 m/s 758 mmHg 54%
    14:00 +7°C° 0 mm 2 m/s 758 mmHg 54%
    15:00 +8°C° 0 mm 3 m/s 758 mmHg 53%
    16:00 +7°C° 0 mm 3 m/s 758 mmHg 58%
    17:00 +5°C° 0 mm 3 m/s 758 mmHg 64%
    18:00 +4°C° 0 mm 3 m/s 758 mmHg 69%
    19:00 +3°C° 0 mm 3 m/s 759 mmHg 71%
    20:00 +3°C° 0 mm 3 m/s 759 mmHg 72%
    21:00 +2°C° 0 mm 3 m/s 760 mmHg 74%
    22:00 +2°C° 0 mm 3 m/s 760 mmHg 75%
    23:00 +3°C° 0 mm 2 m/s 760 mmHg 76%

    19 Februarie, Marţi

    Timp Temperatura Precipitaţii Vânt Presiune Umiditate
    00:00 +3°C° 0 mm 2 m/s 760 mmHg 76%
    01:00 +2°C° 0 mm 2 m/s 760 mmHg 77%
    02:00 +1°C° 0 mm 3 m/s 759 mmHg 77%
    03:00 +1°C° 0 mm 3 m/s 759 mmHg 78%
    04:00 +1°C° 0 mm 3 m/s 759 mmHg 77%
    05:00 +1°C° 0 mm 3 m/s 759 mmHg 77%
    06:00 +1°C° 0 mm 3 m/s 759 mmHg 76%
    07:00 +2°C° 0 mm 3 m/s 759 mmHg 74%
    08:00 +3°C° 0 mm 3 m/s 760 mmHg 72%
    09:00 +3°C° 0 mm 3 m/s 760 mmHg 70%
    10:00 +4°C° 0 mm 3 m/s 759 mmHg 71%
    11:00 +5°C° 0 mm 3 m/s 758 mmHg 71%
    12:00 +6°C° 0 mm 4 m/s 757 mmHg 71%
    13:00 +7°C° 0.2 mm 3 m/s 756 mmHg 75%
    14:00 +8°C° 0.2 mm 3 m/s 755 mmHg 80%
    15:00 +8°C° 0.2 mm 3 m/s 754 mmHg 85%
    16:00 +7°C° 1.9 mm 4 m/s 754 mmHg 87%
    17:00 +7°C° 1.9 mm 4 m/s 754 mmHg 88%
    18:00 +6°C° 1.9 mm 4 m/s 753 mmHg 90%
    19:00 +7°C° 1.2 mm 4 m/s 753 mmHg 91%
    20:00 +7°C° 1.2 mm 4 m/s 753 mmHg 91%
    21:00 +7°C° 1.2 mm 4 m/s 753 mmHg 92%
    22:00 +7°C° 1 mm 4 m/s 752 mmHg 91%
    23:00 +7°C° 1 mm 5 m/s 751 mmHg 90%

    20 Februarie, Miercuri

    Timp Temperatura Precipitaţii Vânt Presiune Umiditate
    00:00 +8°C° 1 mm 6 m/s 750 mmHg 90%
    01:00 +8°C° 0.7 mm 5 m/s 749 mmHg 91%
    02:00 +8°C° 0.7 mm 4 m/s 748 mmHg 92%
    03:00 +10°C° 0.7 mm 3 m/s 747 mmHg 93%
    04:00 +10°C° 1 mm 3 m/s 747 mmHg 95%
    05:00 +10°C° 1 mm 2 m/s 747 mmHg 96%
    06:00 +12°C° 1 mm 2 m/s 746 mmHg 97%
    07:00 +12°C° 0.9 mm 2 m/s 747 mmHg 97%
    08:00 +13°C° 0.9 mm 2 m/s 747 mmHg 97%
    09:00 +14°C° 0.9 mm 2 m/s 747 mmHg 97%
    10:00 +14°C° 0.5 mm 1 m/s 747 mmHg 97%
    11:00 +14°C° 0.5 mm 1 m/s 747 mmHg 97%
    12:00 +14°C° 0.5 mm 1 m/s 746 mmHg 97%
    13:00 +14°C° 0.4 mm 1 m/s 746 mmHg 96%
    14:00 +14°C° 0.4 mm 1 m/s 746 mmHg 95%
    15:00 +14°C° 0.4 mm 1 m/s 746 mmHg 94%
    16:00 +14°C° 0.7 mm 2 m/s 746 mmHg 94%
    17:00 +13°C° 0.7 mm 2 m/s 747 mmHg 94%
    18:00 +13°C° 0.7 mm 2 m/s 747 mmHg 93%
    19:00 +12°C° 0.1 mm 2 m/s 748 mmHg 94%
    20:00 +12°C° 0.1 mm 1 m/s 749 mmHg 94%
    21:00 +12°C° 0.1 mm 1 m/s 749 mmHg 95%
    22:00 +11°C° 0 mm 1 m/s 749 mmHg 95%
    23:00 +10°C° 0 mm 2 m/s 750 mmHg 95%

    21 Februarie, Joi

    Timp Temperatura Precipitaţii Vânt Presiune Umiditate
    00:00 +10°C° 0 mm 2 m/s 750 mmHg 95%
    01:00 +10°C° 0 mm 2 m/s 750 mmHg 93%
    02:00 +9°C° 0 mm 2 m/s 751 mmHg 92%
    03:00 +9°C° 0 mm 3 m/s 751 mmHg 91%
    04:00 +8°C° 0 mm 3 m/s 751 mmHg 91%
    05:00 +7°C° 0 mm 3 m/s 752 mmHg 91%
    06:00 +7°C° 0 mm 3 m/s 752 mmHg 90%
    07:00 +7°C° 0 mm 3 m/s 753 mmHg 89%
    08:00 +7°C° 0 mm 3 m/s 754 mmHg 87%
    09:00 +7°C° 0 mm 3 m/s 754 mmHg 85%
    10:00 +8°C° 0.2 mm 3 m/s 754 mmHg 84%
    11:00 +8°C° 0.2 mm 3 m/s 754 mmHg 83%
    12:00 +9°C° 0.2 mm 3 m/s 754 mmHg 81%
    13:00 +8°C° 0.3 mm 3 m/s 753 mmHg 83%
    14:00 +8°C° 0.3 mm 3 m/s 753 mmHg 85%
    15:00 +8°C° 0.3 mm 3 m/s 753 mmHg 87%
    16:00 +7°C° 0.5 mm 4 m/s 753 mmHg 87%
    17:00 +7°C° 0.5 mm 4 m/s 753 mmHg 87%
    18:00 +7°C° 0.5 mm 4 m/s 754 mmHg 87%
    19:00 +7°C° 0.2 mm 4 m/s 754 mmHg 87%
    20:00 +7°C° 0.2 mm 4 m/s 753 mmHg 88%
    21:00 +7°C° 0.2 mm 4 m/s 753 mmHg 88%
    22:00 +8°C° 0.1 mm 3 m/s 753 mmHg 88%
    23:00 +8°C° 0.1 mm 3 m/s 753 mmHg 88%
    Arată mai mult